Weather History for KMTW - July, 2014

Change the Weather History Date:

Tuesday, July 22, 2014

  Actual Average Record
Temperature  
Mean Temperature 74 °F -  
Max Temperature 90 °F 79 °F 94 °F (1975)
Min Temperature 60 °F 60 °F 50 °F (1981)
Cooling Degree Days 10    
Growing Degree Days 24 (Base 50)    
Moisture  
Dew Point 66 °F    
Average Humidity 75    
Maximum Humidity 96    
Minimum Humidity 49    
Precipitation  
Precipitation 0.00 in - - ()
Sea Level Pressure  
Sea Level Pressure 29.97 in    
Wind  
Wind Speed 8 mph (WSW)    
Max Wind Speed 21 mph    
Max Gust Speed 29 mph    
Visibility 8 miles    
Events Rain    
Averages and records for this station are not official NWS values.
T = Trace of Precipitation, MM = Missing Value Source: NWS Daily Summary

Daily Weather History Graph

Daily Weather History Graph

Search for Another Location

Airport or City:

Trip Planner

Search our weather history database for the weather conditions in past years. The results will help you decide how hot, cold, wet, or windy it might be!

Date:

Astronomy

Jul. 22, 2014 Rise Set
Actual Time 5:28 AM CDT 8:25 PM CDT
Civil Twilight 4:53 AM CDT 8:59 PM CDT
Nautical Twilight 4:09 AM CDT 9:43 PM CDT
Astronomical Twilight 3:18 AM CDT 10:34 PM CDT
Moon 2:02 AM CDT (7/22) 5:02 PM CDT (7/22)
Length of Visible Light 16h 06m
Length of Day
14h 57m
Waning Crescent, 16% of the Moon is Illuminated
Jul 22
Waning Crescent
Jul 26
New
Aug 3
First Quarter
Aug 10
Full
Aug 17
Last Quarter

Hourly Weather History & Observations

Time (CDT) Temp. Heat Index Dew Point Humidity Pressure Visibility Wind Dir Wind Speed Gust Speed Precip Events Conditions
12:56 AM 64.0 °F - 61.0 °F 90% 30.06 in 6.0 mi East 3.5 mph - N/A   Clear
1:56 AM 64.0 °F - 61.0 °F 90% 30.05 in 7.0 mi Calm Calm - N/A   Clear
2:56 AM 64.9 °F - 62.1 °F 90% 30.02 in 7.0 mi South 5.8 mph - N/A   Clear
3:56 AM 61.0 °F - 59.0 °F 93% 30.03 in 5.0 mi Calm Calm - N/A   Clear
4:56 AM 60.1 °F - 59.0 °F 96% 30.02 in 4.0 mi East 4.6 mph - N/A   Clear
5:31 AM 60.8 °F - 59.0 °F 94% 29.96 in 2.5 mi ESE 3.5 mph - N/A   Scattered Clouds
5:48 AM 64.4 °F - 62.6 °F 94% 29.96 in 4.0 mi South 6.9 mph - N/A   Scattered Clouds
5:56 AM 66.9 °F - 64.0 °F 90% 30.00 in 5.0 mi South 8.1 mph - N/A   Partly Cloudy
6:56 AM 68.0 °F - 64.0 °F 87% 29.99 in 6.0 mi South 10.4 mph - N/A   Clear
7:56 AM 70.0 °F - 66.0 °F 87% 29.98 in 8.0 mi South 8.1 mph - 0.00 in Rain Light Rain
8:56 AM 72.0 °F - 66.0 °F 81% 29.95 in 9.0 mi South 12.7 mph - 0.00 in   Clear
9:56 AM 79.0 °F - 69.1 °F 72% 29.94 in 10.0 mi South 10.4 mph - N/A   Mostly Cloudy
10:46 AM 82.4 °F 87.2 °F 71.6 °F 70% 29.89 in 10.0 mi WSW 16.1 mph 26.5 mph N/A   Overcast
10:56 AM 84.0 °F 89.0 °F 71.1 °F 65% 29.93 in 10.0 mi SW 18.4 mph - N/A   Mostly Cloudy
12:56 PM 86.0 °F 93.0 °F 73.0 °F 65% 29.89 in 10.0 mi WSW 16.1 mph 24.2 mph N/A   Clear
1:38 PM 87.8 °F 95.6 °F 73.4 °F 62% 29.86 in 10.0 mi WSW 16.1 mph 19.6 mph N/A   Mostly Cloudy
1:56 PM 88.0 °F 96.5 °F 73.9 °F 63% 29.89 in 10.0 mi West 11.5 mph - N/A   Mostly Cloudy
2:30 PM 87.8 °F 95.6 °F 73.4 °F 62% 29.88 in 10.0 mi West 10.4 mph 23.0 mph N/A   Overcast
2:56 PM 88.0 °F 96.5 °F 73.9 °F 63% 29.91 in 10.0 mi WNW 12.7 mph 18.4 mph N/A   Overcast
3:56 PM 89.1 °F 97.0 °F 73.0 °F 59% 29.91 in 10.0 mi West 13.8 mph 20.7 mph N/A   Partly Cloudy
5:56 PM 89.1 °F 94.1 °F 70.0 °F 53% 29.91 in 10.0 mi NW 13.8 mph 21.9 mph N/A   Mostly Cloudy
6:56 PM 87.1 °F 89.2 °F 66.0 °F 49% 29.94 in 10.0 mi NNW 15.0 mph - N/A   Clear
8:56 PM 79.0 °F - 64.9 °F 62% 30.00 in 10.0 mi North 16.1 mph 24.2 mph N/A   Scattered Clouds
9:56 PM 73.9 °F - 64.0 °F 71% 30.04 in 10.0 mi North 20.7 mph 28.8 mph N/A   Overcast
10:56 PM 69.1 °F - 60.1 °F 73% 30.08 in 10.0 mi North 13.8 mph 20.7 mph N/A   Overcast
11:14 PM 69.8 °F - 60.8 °F 73% 30.04 in 10.0 mi North 11.5 mph - N/A   Overcast
11:56 PM 66.0 °F - 57.0 °F 73% 30.12 in 10.0 mi NE 10.4 mph - N/A   Overcast